Red Wing, WI

9:53 PM CST on November 13, 2019 (GMT -0600)
Red Wing Municipal

Weather History for KRGK - October, 2019

Change the Weather History Date:

Tuesday, October 22, 2019

  Actual Average Record
Temperature  
Mean Temperature 44 °F -  
Max Temperature 46 °F 54 °F 69 °F (2003)
Min Temperature 42 °F 37 °F 21 °F (2013)
Degree Days  
Heating Degree Days 21    
Moisture  
Dew Point 34 °F    
Average Humidity 71    
Maximum Humidity 100    
Minimum Humidity 39    
Precipitation  
Precipitation 0.00 in - - ()
Sea Level Pressure  
Sea Level Pressure 29.46 in    
Wind  
Wind Speed 10 mph (WNW)    
Max Wind Speed 23 mph    
Max Gust Speed 30 mph    
Visibility 8 miles    
Events Rain    
Averages and records for this station are not official NWS values.
T = Trace of Precipitation, MM = Missing Value Source: NWS Daily Summary

Daily Weather History Graph

Daily Weather History Graph

Search for Another Location

Airport or City:

Astronomy

Oct. 22, 2019 Rise Set
Actual Time 7:33 AM CDT 6:14 PM CDT
Civil Twilight 7:04 AM CDT 6:43 PM CDT
Nautical Twilight 6:30 AM CDT 7:17 PM CDT
Astronomical Twilight 5:56 AM CDT 7:51 PM CDT
Moon 12:24 AM CDT (10/22) 3:42 PM CDT (10/22)
Length of Visible Light 11h 39m
Length of Day
10h 40m
Last Quarter, 37% of the Moon is Illuminated
Oct 22
Last Quarter
Oct 27
New
Nov 4
First Quarter
Nov 12
Full
Nov 19
Last Quarter

Hourly Weather History & Observations

Time (CDT) Temp. Windchill Dew Point Humidity Pressure Visibility Wind Dir Wind Speed Gust Speed Precip Events Conditions
12:19 AM 44.6 °F - 42.8 °F 93% 29.16 in 10.0 mi Calm Calm - N/A Rain Light Rain
12:36 AM 44.6 °F - 42.8 °F 93% 29.16 in 10.0 mi Calm Calm - N/A   Drizzle
12:56 AM 44.6 °F - 42.8 °F 93% 29.17 in 7.0 mi Calm Calm - N/A   Drizzle
1:15 AM 44.6 °F - 42.8 °F 93% 29.17 in 10.0 mi Calm Calm - N/A   Drizzle
1:16 AM 44.6 °F - 42.8 °F 93% 29.17 in 10.0 mi Calm Calm - N/A   Drizzle
1:35 AM 44.6 °F - 42.8 °F 93% 29.18 in 10.0 mi Calm Calm - N/A   Overcast
1:57 AM 44.6 °F - 44.6 °F 100% 29.18 in 10.0 mi Calm Calm - N/A   Overcast
2:15 AM 44.6 °F 43.1 °F 44.6 °F 100% 29.18 in 7.0 mi WNW 3.5 mph - N/A   Overcast
2:35 AM 44.6 °F 43.1 °F 44.6 °F 100% 29.19 in 10.0 mi WNW 3.5 mph - N/A   Overcast
2:55 AM 44.6 °F 42.2 °F 44.6 °F 100% 29.20 in 10.0 mi West 4.6 mph - N/A   Overcast
2:56 AM 44.6 °F 42.2 °F 44.6 °F 100% 29.20 in 10.0 mi West 4.6 mph - N/A   Overcast
3:18 AM 44.6 °F 41.4 °F 44.6 °F 100% 29.20 in 10.0 mi WNW 5.8 mph - N/A   Overcast
3:37 AM 44.6 °F 38.4 °F 44.6 °F 100% 29.21 in 3.0 mi NW 12.7 mph 25.3 mph N/A Rain Light Rain
3:56 AM 44.6 °F 38.1 °F 42.8 °F 93% 29.22 in 5.0 mi WNW 13.8 mph 21.9 mph N/A   Overcast
4:15 AM 44.6 °F 38.1 °F 42.8 °F 93% 29.24 in 2.5 mi WNW 13.8 mph 21.9 mph N/A Rain Rain
4:16 AM 44.6 °F 37.8 °F 42.8 °F 93% 29.24 in 2.5 mi WNW 15.0 mph 21.9 mph N/A Rain Rain
4:35 AM 42.8 °F 36.2 °F 41.0 °F 93% 29.25 in 3.0 mi WNW 12.7 mph 23.0 mph N/A   Drizzle
4:39 AM 42.8 °F 37.0 °F 41.0 °F 93% 29.26 in 3.0 mi NW 10.4 mph 23.0 mph N/A Rain Light Rain
4:58 AM 42.8 °F 35.4 °F 39.2 °F 87% 29.27 in 7.0 mi WNW 15.0 mph 25.3 mph N/A Rain Light Rain
5:15 AM 42.8 °F 36.2 °F 39.2 °F 87% 29.28 in 7.0 mi NW 12.7 mph 26.5 mph N/A Rain Light Rain
5:35 AM 42.8 °F 35.8 °F 39.2 °F 87% 29.29 in 7.0 mi WNW 13.8 mph 19.6 mph N/A Rain Light Rain
5:55 AM 42.8 °F 37.0 °F 39.2 °F 87% 29.30 in 7.0 mi WNW 10.4 mph 18.4 mph N/A   Drizzle
5:56 AM 42.8 °F 37.0 °F 39.2 °F 87% 29.30 in 7.0 mi WNW 10.4 mph 18.4 mph N/A   Drizzle
6:19 AM 44.6 °F 39.7 °F 41.0 °F 87% 29.31 in 4.0 mi WNW 9.2 mph 17.3 mph N/A   Heavy Drizzle
6:37 AM 42.8 °F 35.8 °F 41.0 °F 93% 29.32 in 4.0 mi WNW 13.8 mph 19.6 mph N/A Rain Rain
6:56 AM 42.8 °F 35.8 °F 39.2 °F 87% 29.32 in 7.0 mi WNW 13.8 mph 21.9 mph N/A Rain Light Rain
7:15 AM 42.8 °F 35.1 °F 39.2 °F 87% 29.33 in 7.0 mi WNW 16.1 mph 25.3 mph N/A Rain Light Rain
7:16 AM 42.8 °F 34.8 °F 39.2 °F 87% 29.33 in 7.0 mi WNW 17.3 mph 25.3 mph N/A Rain Light Rain
7:35 AM 42.8 °F 35.1 °F 39.2 °F 87% 29.34 in 5.0 mi WNW 16.1 mph 24.2 mph N/A   Heavy Drizzle
7:39 AM 42.8 °F 36.6 °F 39.2 °F 87% 29.34 in 5.0 mi WNW 11.5 mph 23.0 mph N/A   Heavy Drizzle
7:58 AM 42.8 °F 35.1 °F 39.2 °F 87% 29.35 in 5.0 mi WNW 16.1 mph 26.5 mph N/A Rain Heavy Rain
8:15 AM 42.8 °F 35.1 °F 39.2 °F 87% 29.36 in 10.0 mi WNW 16.1 mph 26.5 mph N/A   Drizzle
8:35 AM 42.8 °F 35.4 °F 37.4 °F 81% 29.37 in 10.0 mi WNW 15.0 mph 26.5 mph N/A Rain Light Rain
8:36 AM 42.8 °F 35.1 °F 37.4 °F 81% 29.37 in 10.0 mi WNW 16.1 mph 26.5 mph N/A Rain Light Rain
8:55 AM 42.8 °F 34.5 °F 37.4 °F 81% 29.38 in 7.0 mi WNW 18.4 mph 27.6 mph N/A   Light Drizzle
9:19 AM 42.8 °F 35.4 °F 37.4 °F 81% 29.40 in 10.0 mi WNW 15.0 mph 28.8 mph N/A   Drizzle
9:36 AM 42.8 °F 34.5 °F 37.4 °F 81% 29.40 in 7.0 mi WNW 18.4 mph 27.6 mph N/A Rain Light Rain
9:56 AM 42.8 °F 35.4 °F 37.4 °F 81% 29.41 in 5.0 mi WNW 15.0 mph 28.8 mph N/A Rain Light Rain
10:15 AM 42.8 °F 35.8 °F 37.4 °F 81% 29.42 in 5.0 mi WNW 13.8 mph 24.2 mph N/A Rain Light Rain
10:16 AM 42.8 °F 35.8 °F 37.4 °F 81% 29.42 in 5.0 mi WNW 13.8 mph 24.2 mph N/A Rain Rain
10:58 AM 42.8 °F 35.4 °F 37.4 °F 81% 29.44 in 7.0 mi WNW 15.0 mph 24.2 mph N/A   Light Drizzle
11:15 AM 42.8 °F 34.8 °F 37.4 °F 81% 29.45 in 7.0 mi WNW 17.3 mph 25.3 mph N/A   Drizzle
11:35 AM 42.8 °F 35.8 °F 37.4 °F 81% 29.46 in 5.0 mi WNW 13.8 mph 24.2 mph N/A   Drizzle
11:36 AM 42.8 °F 36.6 °F 37.4 °F 81% 29.46 in 5.0 mi WNW 11.5 mph 24.2 mph N/A   Drizzle
11:55 AM 42.8 °F 34.5 °F 37.4 °F 81% 29.46 in 7.0 mi West 18.4 mph 24.2 mph N/A   Drizzle
11:56 AM 42.8 °F 34.0 °F 37.4 °F 81% 29.46 in 7.0 mi West 20.7 mph 26.5 mph N/A   Drizzle
12:19 PM 42.8 °F 35.1 °F 37.4 °F 81% 29.47 in 10.0 mi West 16.1 mph 24.2 mph N/A   Light Drizzle
12:36 PM 42.8 °F 35.4 °F 35.6 °F 76% 29.48 in 10.0 mi WNW 15.0 mph 27.6 mph N/A Rain Light Rain
12:56 PM 42.8 °F 34.8 °F 35.6 °F 76% 29.48 in 10.0 mi WNW 17.3 mph 27.6 mph N/A   Drizzle
1:15 PM 42.8 °F 36.2 °F 35.6 °F 76% 29.49 in 10.0 mi WNW 12.7 mph 23.0 mph N/A Rain Rain
1:16 PM 42.8 °F 36.2 °F 35.6 °F 76% 29.49 in 10.0 mi WNW 12.7 mph 23.0 mph N/A Rain Rain
1:35 PM 42.8 °F 33.5 °F 35.6 °F 76% 29.49 in 10.0 mi West 23.0 mph 29.9 mph N/A Rain Rain
1:57 PM 42.8 °F 35.8 °F 35.6 °F 76% 29.50 in 10.0 mi WNW 13.8 mph 23.0 mph N/A   Light Drizzle
2:15 PM 42.8 °F 34.5 °F 35.6 °F 76% 29.51 in 7.0 mi WNW 18.4 mph 24.2 mph N/A   Light Drizzle
2:35 PM 42.8 °F 34.8 °F 35.6 °F 76% 29.51 in 10.0 mi WNW 17.3 mph 24.2 mph N/A   Drizzle
2:36 PM 42.8 °F 35.4 °F 35.6 °F 76% 29.51 in 10.0 mi WNW 15.0 mph 24.2 mph N/A   Drizzle
2:55 PM 42.8 °F 37.0 °F 35.6 °F 76% 29.52 in 10.0 mi WNW 10.4 mph 17.3 mph N/A   Overcast
2:56 PM 42.8 °F 37.5 °F 35.6 °F 76% 29.52 in 10.0 mi West 9.2 mph 17.3 mph N/A   Overcast
3:18 PM 42.8 °F 36.2 °F 33.8 °F 70% 29.53 in 10.0 mi WNW 12.7 mph 20.7 mph N/A   Light Drizzle
3:36 PM 44.6 °F 37.4 °F 33.8 °F 66% 29.54 in 10.0 mi West 16.1 mph 21.9 mph N/A   Drizzle
3:55 PM 42.8 °F 35.4 °F 33.8 °F 70% 29.55 in 10.0 mi WNW 15.0 mph 25.3 mph N/A   Drizzle
3:56 PM 42.8 °F 35.4 °F 33.8 °F 70% 29.55 in 10.0 mi West 15.0 mph 25.3 mph N/A   Drizzle
4:15 PM 44.6 °F 38.1 °F 33.8 °F 66% 29.56 in 7.0 mi WNW 13.8 mph 24.2 mph N/A   Drizzle
4:16 PM 44.6 °F 37.8 °F 33.8 °F 66% 29.56 in 7.0 mi West 15.0 mph 24.2 mph N/A   Drizzle
4:35 PM 44.6 °F 37.2 °F 32.0 °F 61% 29.57 in 10.0 mi WNW 17.3 mph 25.3 mph N/A   Drizzle
4:40 PM 44.6 °F 38.8 °F 30.2 °F 57% 29.58 in 10.0 mi WNW 11.5 mph 25.3 mph N/A   Light Drizzle
5:16 PM 44.6 °F 38.1 °F 28.4 °F 53% 29.59 in 10.0 mi WNW 13.8 mph 19.6 mph N/A   Overcast
5:35 PM 44.6 °F 38.4 °F 28.4 °F 53% 29.60 in 10.0 mi WNW 12.7 mph 20.7 mph N/A   Light Drizzle
5:36 PM 44.6 °F 38.1 °F 28.4 °F 53% 29.60 in 10.0 mi WNW 13.8 mph 20.7 mph N/A   Light Drizzle
5:55 PM 44.6 °F 37.2 °F 28.4 °F 53% 29.61 in 10.0 mi WNW 17.3 mph 24.2 mph N/A   Light Drizzle
5:56 PM 44.6 °F 37.4 °F 28.4 °F 53% 29.61 in 10.0 mi WNW 16.1 mph 24.2 mph N/A   Light Drizzle
6:18 PM 44.6 °F 38.4 °F 28.4 °F 53% 29.62 in 10.0 mi WNW 12.7 mph 18.4 mph N/A   Overcast
6:36 PM 44.6 °F 38.4 °F 26.6 °F 49% 29.62 in 10.0 mi WNW 12.7 mph 21.9 mph N/A   Overcast
6:55 PM 44.6 °F 40.2 °F 26.6 °F 49% 29.63 in 10.0 mi West 8.1 mph 16.1 mph N/A   Overcast
6:56 PM 44.6 °F 38.8 °F 26.6 °F 49% 29.63 in 10.0 mi West 11.5 mph 18.4 mph N/A   Overcast
7:15 PM 44.6 °F 37.4 °F 26.6 °F 49% 29.64 in 10.0 mi WNW 16.1 mph 21.9 mph N/A   Overcast
7:16 PM 44.6 °F 38.1 °F 26.6 °F 49% 29.64 in 10.0 mi WNW 13.8 mph 21.9 mph N/A   Overcast
7:35 PM 44.6 °F 37.4 °F 24.8 °F 46% 29.63 in 10.0 mi WNW 16.1 mph 21.9 mph N/A   Overcast
7:39 PM 44.6 °F 38.1 °F 24.8 °F 46% 29.63 in 10.0 mi WNW 13.8 mph 21.9 mph N/A   Overcast
7:58 PM 44.6 °F 38.8 °F 24.8 °F 46% 29.64 in 10.0 mi West 11.5 mph 20.7 mph N/A   Overcast
8:16 PM 46.4 °F 40.1 °F 24.8 °F 43% 29.64 in 10.0 mi WNW 15.0 mph 24.2 mph N/A   Overcast
8:35 PM 46.4 °F 40.4 °F 24.8 °F 43% 29.65 in 10.0 mi WNW 13.8 mph 21.9 mph N/A   Overcast
8:36 PM 46.4 °F 39.8 °F 24.8 °F 43% 29.65 in 10.0 mi WNW 16.1 mph 21.9 mph N/A   Overcast
8:55 PM 46.4 °F 40.1 °F 24.8 °F 43% 29.65 in 10.0 mi West 15.0 mph 21.9 mph N/A   Overcast
9:18 PM 46.4 °F 39.5 °F 23.0 °F 40% 29.66 in 10.0 mi West 17.3 mph 24.2 mph N/A   Overcast
9:37 PM 46.4 °F 40.7 °F 23.0 °F 40% 29.66 in 10.0 mi West 12.7 mph 21.9 mph N/A   Overcast
9:55 PM 46.4 °F 41.1 °F 23.0 °F 40% 29.67 in 10.0 mi WNW 11.5 mph - N/A   Overcast
9:56 PM 46.4 °F 40.7 °F 23.0 °F 40% 29.67 in 10.0 mi WNW 12.7 mph 17.3 mph N/A   Overcast
10:15 PM 44.6 °F 39.2 °F 21.2 °F 39% 29.67 in 10.0 mi West 10.4 mph 19.6 mph N/A   Overcast
10:16 PM 44.6 °F 38.8 °F 21.2 °F 39% 29.67 in 10.0 mi West 11.5 mph 19.6 mph N/A   Overcast
10:35 PM 44.6 °F 38.8 °F 23.0 °F 43% 29.67 in 10.0 mi West 11.5 mph 17.3 mph N/A   Overcast
10:57 PM 44.6 °F 38.8 °F 21.2 °F 39% 29.68 in 10.0 mi West 11.5 mph 19.6 mph N/A   Overcast
11:16 PM 44.6 °F 39.2 °F 21.2 °F 39% 29.68 in 10.0 mi West 10.4 mph 20.7 mph N/A   Overcast
11:35 PM 44.6 °F 38.4 °F 21.2 °F 39% 29.68 in 10.0 mi WNW 12.7 mph 17.3 mph N/A   Overcast
11:36 PM 44.6 °F 39.2 °F 21.2 °F 39% 29.68 in 10.0 mi West 10.4 mph 17.3 mph N/A   Overcast
11:55 PM 44.6 °F 39.2 °F 21.2 °F 39% 29.69 in 10.0 mi WNW 10.4 mph 16.1 mph N/A   Overcast
11:56 PM 44.6 °F 39.2 °F 21.2 °F 39% 29.69 in 10.0 mi WNW 10.4 mph 16.1 mph N/A   Overcast